This is the latest recevied weather packets stored in our database for station/object KF0PEC-15. If no packets are shown the sender has not sent any weather packets the latest 1 day(s).
| Time | Temp. | Humidity | Pressure | Rain* | Wind** | Luminosity | Snow |
|---|---|---|---|---|---|---|---|
| 1778038225 | 0.56° C | 93% | 1022.7 hPa | 0 mm | - | 0 W/m² | - |
| 1778037640 | 0.56° C | 92% | 1022.3 hPa | 0 mm | - | 0 W/m² | - |
| 1778037100 | 0.56° C | 92% | 1022.2 hPa | 0 mm | - | 0 W/m² | - |
| 1778036530 | 0.56° C | 93% | 1021.9 hPa | 0 mm | - | 0 W/m² | - |
| 1778036005 | 0.56° C | 93% | 1021.6 hPa | 0 mm | - | 0 W/m² | - |
| 1778035502 | 1.11° C | 93% | 1021.3 hPa | 0 mm | - | 0 W/m² | - |
| 1778034985 | 0.56° C | 93% | 1021.3 hPa | 0 mm | - | 0 W/m² | - |
| 1778034505 | 1.11° C | 93% | 1021.2 hPa | 0 mm | - | 0 W/m² | - |
| 1778033945 | 1.11° C | 94% | 1020.8 hPa | 0 mm | - | 5 W/m² | - |
| 1778033355 | 1.11° C | 94% | 1020.7 hPa | 0 mm | - | 42 W/m² | - |
| 1778032860 | 1.11° C | 95% | 1020.5 hPa | 0 mm | - | 77 W/m² | - |
| 1778032352 | 1.11° C | 95% | 1020.4 hPa | 0 mm | - | 132 W/m² | - |
| 1778031755 | 2.22° C | 95% | 1019.5 hPa | 0 mm | - | 128 W/m² | - |
| 1778031260 | 2.22° C | 95% | 1019.2 hPa | 0 mm | - | 322 W/m² | - |
| 1778030755 | 2.22° C | 95% | 1019.1 hPa | 0 mm | - | 522 W/m² | - |
| 1778030220 | 2.22° C | 95% | 1018.8 hPa | 0 mm | - | 969 W/m² | - |
| 1778029685 | 2.22° C | 95% | 1018.7 hPa | 0 mm | - | 673 W/m² | - |
| 1778029195 | 2.22° C | 95% | 1018.9 hPa | 0 mm | - | 104 W/m² | - |
| 1778028690 | 2.22° C | 95% | 1018.9 hPa | 0 mm | - | 142 W/m² | - |
| 1778028185 | 2.22° C | 95% | 1019.1 hPa | 0 mm | - | 947 W/m² | - |
| 1778027592 | 2.22° C | 95% | 1019.2 hPa | 0 mm | - | 676 W/m² | - |
| 1778027020 | 2.22° C | 95% | 1019 hPa | 0 mm | - | 606 W/m² | - |
| 1778026450 | 2.22° C | 95% | 1018.8 hPa | 0 mm | - | 857 W/m² | - |
| 1778025950 | 2.22° C | 95% | 1018.5 hPa | 0 mm | - | 110 W/m² | - |
| 1778025380 | 2.22° C | 95% | 1018.3 hPa | 0 mm | - | 189 W/m² | - |
* Rain latest hour (hover to see other rain measurements)
** Current wind speed in m/s (hover to see current wind gust speed)